EHI
12 13 12 11 9 8 7 6 3 1 1 0 0 0 0 0 1 1 1 1 0 0 0 0 0 0 0 0 0 0 0 0 0 0 0 0 0 0 0 0 0 0 0
13 12 11 10 8 6 6 5 3 1 1 0 0 0 0 0 0 1 1 1 1 1 0 0 0 0 0 0 0 0 0 0 0 0 0 0 0 0 0 0 0 0 0
11 9 9 9 8 6 5 5 3 1 0 0 0 0 0 0 0 0 1 1 1 1 1 0 0 0 0 0 0 0 0 0 0 0 0 0 0 0 0 0 0 0 0
7 6 6 9 9 6 5 5 5 2 0 0 1 1 0 0 0 0 0 0 1 1 1 1 0 0 0 0 0 0 0 0 0 0 0 0 0 0 0 0 0 0 0
7 6 7 10 10 6 3 4 5 3 1 1 1 1 0 1 1 1 0 0 0 0 1 1 0 0 1 0 0 0 0 0 0 0 0 0 0 0 0 0 0 0 0
8 7 7 10 10 6 3 3 4 5 4 3 1 1 0 1 2 2 1 1 0 0 0 0 0 0 0 0 0 0 0 0 0 0 0 0 0 0 0 0 0 0 0
6 6 7 9 10 8 5 3 4 5 5 5 3 1 0 0 1 2 2 1 0 0 0 0 0 0 0 0 0 0 0 0 0 0 0 0 0 0 0 0 0 0 0
6 7 7 8 9 8 6 4 4 6 6 5 3 1 0 0 1 1 1 1 0 0 0 0 0 0 0 0 0 0 0 0 0 0 0 0 0 0 0 0 0 0 0
6 7 6 5 5 5 4 3 4 5 5 3 2 1 0 0 1 1 0 0 0 0 0 0 0 0 0 0 0 0 0 0 0 0 0 0 0 0 0 0 0 0 0
4 6 5 2 1 1 1 1 2 3 3 2 1 0 0 0 1 1 0 0 0 0 0 0 0 0 0 0 0 0 0 0 0 0 0 0 0 0 0 0 0 0 0
3 5 4 1 0 0 0 0 0 1 1 1 0 0 0 0 0 0 0 0 0 0 0 1 0 0 0 0 0 0 0 0 0 0 0 0 0 0 0 0 0 0 0
3 3 3 1 0 0 0 0 0 1 1 0 0 0 0 0 0 0 0 0 0 0 0 0 0 0 0 0 0 0 0 0 0 0 0 0 0 0 0 0 0 0 0
3 3 1 0 0 0 0 0 1 2 2 1 0 0 0 0 0 0 0 0 0 0 0 0 0 0 0 0 0 0 0 0 0 0 0 0 1 2 1 0 0 0 0
2 2 1 0 0 0 1 1 2 3 3 2 1 0 0 0 0 0 0 0 0 0 0 0 0 0 0 0 0 0 0 0 0 0 0 1 3 4 3 2 1 0 0
1 1 0 0 0 1 2 2 2 2 3 2 1 0 0 0 0 0 0 0 0 0 0 0 0 0 0 0 0 0 0 0 0 0 0 1 3 4 4 3 1 0 0
0 1 1 0 0 1 2 2 1 1 2 2 1 0 0 0 0 0 0 0 0 0 0 0 0 0 0 0 0 0 0 0 0 0 0 0 1 2 2 2 1 0 0
1 1 1 1 1 1 2 2 2 1 1 1 1 0 0 0 0 0 0 0 0 0 0 0 0 0 0 0 0 0 0 0 0 0 0 0 0 0 1 1 1 0 0
0 1 1 1 2 2 2 2 2 1 1 0 0 0 0 0 0 0 0 0 0 0 0 0 0 0 0 0 0 0 0 0 0 0 0 0 0 0 0 0 0 0 0
0 0 0 1 1 1 1 1 1 1 0 0 0 0 0 0 0 0 0 0 0 0 0 0 0 0 0 0 0 0 0 0 0 0 0 0 0 0 0 0 0 0 0
0 0 0 0 0 0 0 0 0 0 0 0 0 0 0 0 0 0 0 0 0 0 0 0 0 0 0 0 0 0 0 0 0 0 0 0 0 0 0 0 0 0 0
0 0 0 0 0 0 0 0 0 0 0 0 0 0 1 0 0 0 0 0 0 0 0 0 0 0 0 0 0 0 0 0 0 0 0 0 0 0 0 0 0 0 0
0 0 0 0 0 0 0 0 0 0 0 0 0 0 0 0 0 0 0 0 0 0 0 0 0 0 0 0 0 0 0 0 0 0 0 0 0 0 0 0 0 0 0
0 0 0 0 0 0 0 0 0 0 0 0 0 0 0 0 0 0 0 0 0 0 0 0 0 0 0 0 0 0 0 0 0 0 0 0 0 0 0 0 0 0 0
0 0 0 0 0 0 0 0 0 0 0 0 0 0 0 0 0 0 0 0 0 0 0 0 0 0 0 0 0 0 0 0 0 0 0 0 0 0 0 0 0 0 0
0 0 0 0 0 0 0 0 0 0 0 0 0 0 0 0 0 0 0 0 0 0 0 0 0 0 0 0 0 0 0 0 0 0 0 0 0 0 0 0 0 0 0
0 0 0 0 0 0 0 0 0 0 0 0 0 0 0 0 0 0 0 0 0 0 0 0 0 0 0 0 0 0 0 0 0 0 0 0 0 0 0 0 0 0 0
Wind_Speed
5 8 8 7 7 7 7 6 6 5 5 5 5 5 5 6 6 6 6 6 5 6 7 7 8 8 9 10 10 10 11 11 11 12 11 11 11 11 11 11 11 9 13
6 8 8 7 6 6 6 6 6 5 5 5 4 4 4 5 5 5 5 5 6 6 7 7 7 8 9 10 10 10 10 10 10 10 10 9 9 10 11 11 11 8 13
7 8 8 6 6 6 6 6 6 5 4 4 4 4 4 5 5 5 5 5 5 6 6 7 7 8 9 9 9 9 9 8 8 7 7 5 6 10 11 11 12 12 12
7 7 7 6 5 5 5 5 5 5 4 4 4 4 3 3 4 5 5 5 5 5 6 7 7 8 9 9 9 8 7 6 4 3 3 5 5 9 10 11 11 11 12
6 7 7 6 5 5 5 5 5 4 4 3 3 3 3 2 3 4 4 4 5 6 6 7 7 8 8 9 8 7 6 3 1 1 4 5 4 9 10 10 10 10 11
6 6 6 6 5 4 4 4 4 4 3 3 3 2 2 2 3 3 4 4 5 6 7 7 7 8 8 8 7 6 4 2 0 1 4 5 5 9 10 10 9 10 10
4 6 6 6 5 4 4 3 3 3 3 3 2 2 1 1 2 3 4 5 5 6 7 7 7 7 7 7 6 5 3 1 1 3 4 5 6 10 10 9 9 10 10
4 5 5 5 4 4 4 3 3 2 2 2 1 1 1 1 2 2 4 5 6 6 6 7 7 7 7 7 6 4 2 1 2 4 4 5 8 9 9 8 9 10 10
3 4 3 3 4 4 3 3 3 2 2 1 1 1 1 1 1 2 4 5 6 6 6 6 6 7 7 7 6 3 1 1 1 2 5 4 7 8 8 8 9 10 10
2 3 3 2 3 3 3 3 2 2 1 1 1 1 1 1 1 2 3 5 6 6 6 6 6 6 7 6 5 3 1 0 1 3 3 4 8 8 8 8 9 9 9
1 2 2 2 2 2 2 3 3 3 2 2 1 1 1 1 2 2 3 4 5 6 6 6 6 6 5 5 4 4 2 1 1 2 3 6 8 8 7 8 8 8 8
1 2 2 2 2 2 1 1 2 2 2 2 1 2 2 2 1 1 3 4 5 6 6 6 6 6 4 2 2 3 1 2 2 2 3 7 8 7 7 7 7 8 8
1 1 1 2 2 2 1 0 0 1 1 1 0 1 1 1 1 1 1 2 3 4 3 4 4 3 3 2 2 2 2 2 2 2 4 7 7 7 7 7 7 7 7
1 1 2 2 2 2 2 1 1 1 1 1 0 0 0 1 1 1 1 2 2 2 3 3 2 3 3 3 3 3 2 2 2 3 3 6 6 7 7 7 7 7 7
1 1 2 2 2 2 2 1 1 1 1 1 1 1 1 1 1 1 1 1 2 2 2 2 2 3 3 3 3 3 3 3 3 4 3 5 6 6 7 7 7 7 8
1 1 1 2 2 2 2 2 1 1 1 1 1 1 1 1 1 1 1 2 1 2 2 3 3 3 2 2 2 2 3 3 3 4 4 4 5 5 6 7 6 7 8
2 2 2 2 2 2 3 2 2 2 2 1 1 1 2 1 2 1 2 2 1 1 2 2 2 2 2 2 2 2 2 2 3 4 4 3 3 3 4 5 5 6 7
2 2 2 2 1 2 2 2 2 2 2 2 2 1 2 2 2 2 2 2 1 1 1 2 2 2 2 2 2 1 1 2 3 3 4 3 3 2 3 4 3 4 5
2 2 3 2 2 1 2 2 2 1 1 1 2 2 2 2 2 2 1 2 2 2 2 2 2 2 3 2 2 2 2 2 2 3 3 3 3 3 2 3 4 3 3
2 2 3 2 2 2 1 1 1 1 1 1 1 2 2 2 2 2 1 2 2 2 2 2 2 2 2 3 3 3 2 2 1 2 3 3 3 3 3 3 2 2 3
2 2 2 2 2 2 1 1 1 1 1 1 1 2 2 2 3 2 1 1 1 2 2 3 3 3 2 2 3 2 2 2 1 1 1 2 2 3 3 3 2 2 1
2 2 2 2 2 2 1 1 1 1 1 1 1 1 2 3 2 2 3 2 2 2 3 3 3 2 2 2 2 2 1 1 1 1 0 1 2 2 2 2 2 2 2
2 2 2 2 3 3 2 1 1 1 0 0 1 1 2 3 3 3 3 2 2 2 3 3 4 3 3 2 2 3 3 3 0 1 1 1 1 1 1 1 2 2 2
1 1 2 2 2 2 2 2 2 2 2 2 2 2 2 2 3 3 4 3 3 2 3 3 3 2 4 3 2 1 1 3 3 1 1 1 1 1 2 1 1 1 2
2 1 1 1 2 2 2 2 2 2 2 1 1 2 2 2 2 3 3 3 3 3 3 3 3 3 3 3 3 1 0 0 1 2 2 1 1 1 1 2 1 1 2
2 1 1 1 1 2 2 2 3 3 2 2 2 2 2 1 2 3 3 3 3 2 3 3 4 4 3 3 3 2 2 2 2 2 2 2 2 2 1 1 2 2 2
Wind_Direction
105 118 112 106 101 97 93 89 90 88 90 97 99 98 111 115 107 107 105 105 108 121 122 115 112 109 104 100 97 96 94 94 93 91 88 87 88 87 85 88 86 85 89
114 119 115 107 105 100 95 89 86 85 87 90 98 101 107 123 120 115 112 111 112 119 121 120 115 112 109 107 104 104 103 103 103 101 95 86 85 86 84 82 88 93 92
113 118 118 107 106 102 98 91 85 87 92 91 94 98 103 116 129 126 124 118 116 117 118 115 114 112 110 108 106 108 112 115 117 121 115 106 97 94 92 90 94 96 94
111 116 117 110 109 106 104 98 90 91 95 94 92 94 101 111 125 131 131 130 124 119 119 115 115 114 113 111 112 115 121 131 137 144 131 112 105 105 101 100 100 99 97
98 108 111 110 110 109 106 104 93 87 91 92 92 98 107 113 131 138 132 129 127 122 118 119 119 117 116 118 120 126 135 145 175 138 97 98 99 111 104 104 102 101 99
94 102 111 112 110 107 106 103 99 89 91 90 87 93 107 122 123 137 133 121 121 123 123 126 125 126 121 121 128 137 147 159 162 108 103 105 102 110 105 102 104 104 103
98 103 118 117 118 115 112 108 102 93 90 93 89 93 97 113 116 125 132 124 121 122 122 128 130 131 129 128 135 145 154 141 96 80 90 98 108 114 111 107 108 106 104
100 102 115 116 122 122 120 119 117 106 92 93 106 104 84 117 129 128 138 136 133 132 134 136 138 138 138 136 137 138 122 93 118 102 98 100 113 116 114 112 111 107 106
96 106 122 140 135 126 127 136 137 129 114 103 113 99 77 104 135 137 151 153 150 145 141 136 139 144 144 139 139 139 108 57 55 93 104 105 118 121 118 118 115 111 108
106 119 127 140 141 146 148 143 155 157 164 154 118 91 87 137 165 153 155 162 158 154 149 143 140 143 145 143 144 148 161 21 96 93 96 114 122 127 125 124 121 117 112
125 132 131 137 135 137 160 157 166 170 185 181 163 159 160 183 178 176 177 163 160 160 157 153 147 142 135 146 153 159 167 175 125 102 102 125 130 130 128 127 122 119 116
179 158 141 137 126 123 153 151 167 173 168 187 182 175 190 189 174 158 162 168 164 161 160 157 157 145 136 149 163 169 181 176 131 114 119 131 137 138 135 131 123 120 117
173 171 146 144 145 140 137 155 153 141 138 182 181 188 192 162 153 130 139 159 161 159 160 158 160 162 163 157 166 179 189 150 118 111 124 135 143 145 143 136 131 128 125
186 191 168 152 156 151 146 160 156 132 130 134 214 212 158 146 153 158 165 164 158 162 161 161 168 163 165 159 166 175 161 130 114 107 120 133 145 150 147 145 141 138 136
201 212 172 151 162 157 153 169 161 146 135 163 174 195 165 153 155 158 157 159 173 162 158 164 174 162 157 162 172 158 144 130 118 109 111 119 126 140 152 153 151 149 145
205 207 163 163 169 162 162 169 168 156 165 174 177 184 161 158 160 159 155 165 175 169 164 167 171 153 150 145 142 133 132 128 124 121 115 112 116 127 143 156 158 159 158
208 185 156 170 173 178 183 181 167 168 164 172 188 189 161 149 160 162 160 159 160 149 156 155 149 136 132 121 116 116 117 120 119 124 125 123 118 111 126 148 161 165 167
187 169 159 161 159 188 181 177 171 173 175 182 183 185 168 155 158 158 158 160 149 133 136 149 143 133 129 119 111 98 85 98 114 119 121 125 126 121 111 120 133 156 170
181 170 159 146 158 178 177 172 165 163 183 185 174 172 171 161 151 144 161 155 142 143 146 151 137 136 130 115 99 77 62 73 100 113 117 117 114 112 110 102 98 114 158
170 166 153 149 159 148 141 137 131 162 172 156 163 175 166 155 148 138 152 150 143 148 146 138 134 109 121 124 100 70 47 40 49 91 120 116 118 122 124 123 114 110 116
156 164 161 160 163 131 134 159 163 190 179 177 189 173 160 154 149 139 141 151 152 163 158 141 130 119 104 105 97 74 32 29 36 41 79 120 129 131 128 131 134 128 136
165 173 169 157 152 149 173 176 163 155 165 189 186 158 156 156 152 147 138 151 161 161 160 154 144 133 136 136 126 112 98 360 355 350 1 124 132 124 126 142 148 147 141
156 168 172 160 161 167 165 143 121 108 122 168 163 171 171 167 159 152 146 157 171 167 171 169 160 147 154 169 152 148 159 190 217 267 256 165 135 121 148 159 159 154 151
157 144 153 159 158 162 160 164 176 179 194 200 177 172 168 171 168 160 154 162 174 172 173 175 159 159 158 169 189 215 179 149 153 172 273 250 191 185 191 184 167 164 155
117 120 140 156 155 162 175 182 186 196 201 181 162 162 168 174 175 161 158 163 176 179 177 174 163 167 171 173 176 180 162 93 141 152 201 222 243 222 199 192 187 188 175
103 103 127 144 156 159 176 193 189 192 196 185 180 175 178 171 176 170 168 170 177 176 177 174 173 177 178 176 177 173 172 175 187 168 179 200 231 243 215 194 192 191 184